Wind_Speed
32 28 26 25 24 21 19 16 16 16 16 14 14 16 17 15 16 15 14 18 19 19 18 17 16 16 15 14 14 12 11 11 10 9 9 8 7 7 6 5 4 4 5
35 32 29 28 26 25 22 19 18 16 16 15 16 17 17 15 14 15 16 18 20 20 18 19 18 17 16 16 15 14 14 13 12 11 10 9 9 9 9 8 7 6 7
37 36 34 30 27 27 24 24 22 19 17 18 17 17 17 17 17 16 15 17 19 19 19 20 20 19 18 18 17 16 16 15 14 12 11 12 12 11 12 11 10 9 9
37 36 36 34 31 30 27 26 23 21 19 18 16 17 19 20 19 18 15 16 18 20 21 22 21 20 20 20 20 17 17 16 15 14 14 15 14 13 13 13 12 12 12
40 38 35 34 33 33 29 29 25 21 19 19 17 18 21 23 20 19 17 16 18 19 20 22 22 22 22 22 21 19 20 20 19 17 17 17 16 15 14 15 14 14 15
36 41 38 33 35 33 30 32 24 24 20 21 20 21 22 23 22 20 19 18 18 19 21 22 23 23 24 25 21 23 22 22 21 20 19 18 18 17 16 16 16 17 17
39 38 42 39 37 35 34 33 32 25 26 24 22 23 23 22 22 21 21 20 19 20 21 22 23 24 25 26 22 24 24 24 23 22 21 21 20 20 19 18 19 19 18
42 43 41 41 40 38 35 37 30 28 30 28 30 24 23 24 23 22 21 21 21 21 22 22 23 25 25 27 26 25 26 26 25 24 23 23 22 22 21 20 20 21 20
42 43 43 42 41 42 39 38 34 35 33 33 29 28 26 28 21 21 20 20 21 22 23 23 24 25 26 27 28 27 28 28 28 27 26 25 25 24 23 23 22 23 22
39 40 40 41 40 42 44 39 36 39 32 31 31 32 29 27 30 26 26 22 20 20 23 23 24 25 27 27 29 29 27 29 30 29 29 28 27 26 26 25 25 25 24
39 40 39 39 41 40 41 42 40 36 35 38 40 26 25 34 35 32 29 26 27 29 25 23 25 26 27 28 28 29 29 31 32 31 31 30 30 29 29 28 28 27 27
37 38 38 38 38 39 40 43 39 35 38 36 38 39 40 34 37 33 32 29 30 27 24 24 30 29 30 29 29 28 29 32 33 33 33 32 31 31 31 30 30 29 28
36 36 36 37 39 40 41 39 38 41 35 37 33 38 33 34 28 36 38 40 38 35 35 33 31 31 32 31 29 30 31 32 33 34 35 36 34 32 33 34 32 32 30
33 33 33 34 35 36 37 38 40 40 42 41 37 40 37 40 42 40 34 32 35 37 37 34 34 35 36 35 32 30 33 36 36 37 37 38 38 36 33 36 35 33 33
35 33 33 33 34 34 34 35 35 37 37 37 39 31 37 40 38 38 37 40 30 40 39 36 35 35 35 36 38 37 35 34 39 39 38 39 40 39 36 38 37 35 34
37 34 34 34 35 35 36 35 35 37 40 37 38 39 36 34 34 38 37 36 35 36 36 40 34 32 36 39 34 41 38 37 38 41 41 41 41 40 39 39 39 37 36
38 36 36 36 36 37 37 38 38 39 38 37 36 37 36 36 38 37 37 34 35 35 40 39 36 37 37 37 38 36 39 40 41 38 39 42 42 41 39 39 39 39 36
38 37 37 37 37 38 37 38 36 37 39 38 36 34 36 37 36 37 37 37 36 42 42 40 40 37 42 40 39 38 37 37 41 40 37 38 42 41 41 40 38 38 37
30 31 30 31 34 36 37 39 39 38 36 40 39 42 39 38 34 37 36 40 34 41 42 41 40 43 43 39 39 36 42 41 39 40 39 36 34 38 40 41 39 37 36
27 24 20 22 26 27 30 30 34 37 38 38 38 39 39 40 41 41 41 42 43 43 43 42 47 46 43 46 43 43 43 46 46 40 41 42 37 36 36 37 36 35 33
26 27 31 30 28 27 29 26 28 26 39 39 39 42 42 41 41 43 45 46 44 45 47 45 44 48 51 45 46 42 42 42 47 48 42 42 43 41 38 35 35 33 35
22 27 28 27 29 30 28 31 32 35 38 35 37 37 36 38 41 42 40 38 42 50 53 50 47 54 49 55 51 46 50 47 49 46 44 45 42 36 35 36 36 37 36
17 16 15 20 23 26 30 29 33 33 32 38 33 35 33 33 33 36 37 37 42 47 47 46 49 48 48 42 47 48 49 45 46 51 48 40 37 38 36 39 39 40 36
27 25 24 20 19 21 27 33 35 37 38 32 28 31 32 32 33 34 34 40 42 42 52 51 50 52 49 46 42 43 38 42 49 52 48 48 40 33 34 39 39 35 35
29 34 33 31 34 30 28 29 30 30 37 35 31 33 29 31 31 29 28 30 37 38 39 43 46 49 50 46 41 42 40 41 47 47 39 40 37 31 32 36 36 35 36
26 24 25 27 30 33 31 28 30 33 32 32 32 31 30 30 28 27 29 29 32 34 37 43 48 52 51 50 46 38 43 47 45 46 45 45 32 33 33 32 32 32 34
Wind_Direction
238 240 236 233 234 238 236 234 234 231 230 226 225 232 236 234 228 220 216 216 214 219 221 223 226 228 229 227 222 219 216 226 232 236 245 251 268 282 271 261 273 291 313
239 238 237 233 234 237 237 234 235 233 231 227 221 230 238 236 234 228 218 219 223 226 224 225 230 231 233 235 234 227 224 225 231 243 251 255 262 274 270 266 266 277 295
237 237 236 236 235 232 234 233 234 234 230 228 220 230 233 235 235 234 228 225 226 226 229 232 231 233 236 238 238 233 233 232 235 239 249 257 261 269 272 271 278 285 291
231 234 236 236 236 236 232 230 231 233 230 231 228 225 231 237 238 240 234 229 230 230 230 236 238 237 237 235 238 235 238 237 241 242 243 250 256 265 271 272 274 280 287
231 231 232 234 229 235 229 233 225 226 230 231 229 227 232 240 240 242 241 232 235 235 235 238 240 240 242 242 238 234 235 238 240 244 250 255 258 262 266 268 273 277 281
230 231 229 231 232 235 233 241 236 219 225 231 230 232 236 242 242 242 241 240 239 237 238 243 244 242 241 244 244 240 238 239 242 244 248 254 260 266 269 270 272 275 279
230 229 228 228 228 234 240 239 233 230 234 227 232 236 240 245 247 246 249 249 245 246 244 244 246 247 247 248 244 241 243 242 244 247 250 253 257 261 266 270 273 275 278
229 229 229 230 227 234 223 228 233 229 231 235 242 247 250 249 249 252 253 252 252 252 253 251 251 252 250 252 249 243 244 246 247 249 252 255 258 261 265 269 273 275 277
228 229 230 229 230 223 226 235 228 240 236 233 246 243 248 249 256 257 260 261 260 259 259 260 258 256 255 253 256 252 248 248 251 253 255 257 259 262 265 268 271 272 275
228 227 228 227 227 226 225 227 238 232 229 224 240 244 246 243 251 260 260 260 261 263 263 264 266 263 261 257 257 257 251 251 253 254 255 258 260 263 265 268 270 271 273
224 226 225 225 226 226 225 229 225 228 236 235 240 232 236 241 258 253 261 261 263 263 262 264 262 263 265 264 262 261 257 255 254 255 257 259 259 259 261 264 267 270 272
223 224 226 225 225 228 229 229 223 231 228 236 233 243 249 247 255 253 255 259 258 257 258 260 264 266 265 265 264 261 259 259 259 258 258 259 262 265 266 266 267 269 272
223 221 223 224 225 227 227 229 223 229 230 235 234 241 242 246 248 249 254 254 253 253 255 260 264 268 268 267 264 261 256 254 256 257 260 261 260 260 264 266 267 270 272
222 221 220 222 225 226 228 227 227 229 233 237 234 245 243 244 245 258 253 251 253 255 253 256 257 260 261 263 264 260 258 255 251 253 256 258 260 260 259 264 266 268 271
219 222 226 227 222 223 226 230 231 231 235 239 237 237 239 237 245 247 256 254 257 257 261 260 258 258 262 262 261 260 257 257 257 252 252 256 259 260 260 262 265 267 269
221 225 229 230 227 222 226 229 232 232 234 235 238 239 239 236 243 247 255 259 258 261 257 260 262 264 261 256 267 263 263 260 257 255 252 251 254 257 259 261 265 267 268
223 227 230 233 234 233 229 226 227 230 230 234 236 238 236 241 246 245 255 249 256 253 261 269 266 262 262 260 259 273 266 264 261 261 259 256 255 254 256 260 264 267 269
229 233 233 233 232 234 233 233 233 232 230 235 239 242 236 240 244 248 248 250 245 252 258 266 267 265 265 264 256 255 271 264 263 266 262 260 259 260 260 259 261 265 268
228 232 232 232 231 231 232 234 236 236 227 236 232 235 242 243 249 249 256 253 252 256 256 254 265 265 266 271 265 259 268 270 262 256 261 262 266 265 263 262 263 265 266
223 214 219 232 232 233 234 231 232 234 234 236 235 238 241 243 247 250 252 255 254 257 258 252 262 262 260 266 261 266 259 265 268 262 259 265 266 268 267 265 260 260 263
210 223 224 219 225 229 227 237 233 234 236 236 238 238 244 249 250 255 259 258 258 258 261 253 252 258 254 263 262 269 257 273 263 264 255 258 257 260 261 259 261 262 265
224 229 238 231 238 235 230 232 246 250 231 238 233 241 247 249 253 258 263 258 261 256 255 256 255 258 259 263 262 265 264 260 264 266 257 254 256 259 259 259 260 262 263
218 218 225 231 236 242 233 234 237 243 240 249 248 246 256 257 260 262 260 259 258 252 255 258 260 262 260 268 265 258 265 257 265 270 258 251 251 251 256 258 260 263 266
244 246 243 241 246 251 250 246 244 242 248 248 247 252 258 257 265 267 263 257 261 262 249 249 256 261 259 262 257 267 269 265 259 264 255 248 256 253 251 255 261 268 267
242 249 252 255 258 258 259 251 249 243 241 246 253 255 262 259 269 268 258 260 261 258 248 252 255 257 260 254 254 254 252 258 261 255 247 250 238 251 252 260 263 264 266
233 238 242 244 244 250 248 248 247 241 243 249 257 253 257 258 263 261 263 262 263 261 259 257 254 253 255 251 247 252 268 264 256 243 249 251 248 242 258 261 264 265 263
Height
3125 3129 3132 3134 3137 3138 3140 3141 3143 3145 3147 3149 3150 3150 3151 3154 3156 3158 3160 3162 3164 3166 3169 3171 3173 3175 3177 3178 3179 3181 3182 3183 3184 3185 3186 3187 3187 3187 3187 3186 3186 3185 3185
3118 3123 3127 3130 3132 3135 3136 3138 3139 3142 3144 3146 3147 3148 3148 3151 3153 3155 3157 3159 3162 3164 3166 3168 3171 3173 3174 3176 3178 3179 3180 3180 3182 3183 3184 3185 3185 3186 3185 3185 3184 3184 3183
3111 3116 3120 3124 3127 3130 3132 3134 3135 3138 3140 3142 3144 3144 3145 3147 3149 3152 3154 3156 3159 3161 3164 3166 3168 3170 3172 3173 3175 3177 3177 3179 3180 3180 3182 3183 3183 3184 3184 3184 3183 3182 3182
3105 3108 3113 3118 3121 3123 3126 3129 3132 3134 3136 3137 3140 3141 3142 3143 3146 3148 3151 3153 3155 3158 3160 3161 3164 3167 3168 3170 3171 3174 3175 3177 3178 3178 3178 3179 3180 3181 3181 3181 3181 3180 3180
3098 3102 3106 3111 3114 3116 3121 3124 3127 3130 3132 3133 3136 3138 3138 3139 3143 3145 3147 3150 3152 3154 3157 3158 3160 3163 3165 3167 3168 3170 3171 3173 3174 3176 3177 3177 3177 3177 3178 3178 3178 3178 3177
3090 3095 3099 3103 3107 3110 3115 3118 3123 3125 3127 3128 3130 3132 3134 3136 3139 3142 3144 3146 3148 3150 3153 3155 3157 3159 3160 3162 3166 3166 3167 3169 3170 3172 3173 3174 3174 3175 3174 3174 3174 3174 3173
3084 3087 3092 3096 3100 3103 3108 3112 3116 3120 3121 3123 3126 3127 3129 3132 3136 3138 3140 3143 3145 3147 3149 3151 3153 3155 3156 3158 3161 3163 3164 3165 3166 3167 3168 3169 3170 3171 3171 3171 3170 3170 3170
3074 3079 3084 3089 3093 3097 3100 3105 3108 3113 3115 3118 3122 3125 3125 3128 3131 3134 3137 3139 3141 3143 3145 3146 3148 3150 3152 3154 3157 3158 3160 3161 3162 3163 3164 3165 3166 3166 3166 3166 3166 3166 3165
3065 3070 3075 3080 3085 3091 3093 3097 3099 3105 3110 3113 3117 3120 3121 3123 3127 3129 3132 3135 3137 3139 3140 3142 3144 3146 3147 3149 3151 3154 3155 3156 3157 3158 3159 3160 3161 3161 3161 3161 3161 3161 3161
3056 3062 3067 3072 3077 3082 3086 3090 3095 3095 3102 3105 3109 3113 3116 3118 3120 3124 3127 3130 3131 3134 3136 3137 3139 3140 3142 3144 3146 3148 3150 3151 3152 3152 3153 3154 3155 3156 3156 3156 3156 3156 3155
3048 3053 3059 3064 3069 3073 3078 3083 3088 3091 3095 3099 3102 3105 3108 3113 3113 3117 3120 3124 3125 3127 3129 3130 3131 3134 3137 3139 3141 3143 3144 3145 3145 3146 3147 3148 3148 3149 3149 3149 3149 3149 3149
3040 3045 3051 3056 3061 3066 3070 3075 3080 3084 3088 3090 3096 3098 3101 3105 3109 3112 3115 3116 3119 3121 3122 3123 3125 3128 3130 3133 3135 3137 3138 3138 3139 3140 3140 3141 3143 3143 3143 3143 3143 3142 3143
3033 3037 3042 3048 3053 3058 3063 3067 3071 3075 3080 3084 3086 3091 3095 3098 3101 3103 3106 3107 3109 3114 3114 3116 3119 3120 3122 3125 3127 3129 3130 3130 3132 3133 3134 3134 3135 3136 3136 3135 3136 3136 3136
3026 3030 3035 3041 3046 3051 3055 3059 3063 3068 3072 3075 3079 3082 3086 3090 3093 3095 3097 3100 3101 3103 3106 3109 3111 3113 3115 3116 3118 3119 3120 3122 3123 3124 3126 3126 3126 3128 3129 3127 3128 3129 3128
3019 3023 3027 3033 3038 3043 3048 3052 3055 3060 3064 3068 3072 3075 3078 3081 3084 3086 3088 3091 3094 3092 3095 3101 3105 3106 3106 3107 3108 3110 3111 3113 3115 3114 3115 3117 3118 3119 3121 3119 3120 3120 3120
3012 3016 3020 3025 3030 3035 3040 3044 3048 3052 3055 3059 3062 3066 3070 3072 3075 3079 3080 3082 3083 3085 3085 3090 3095 3098 3098 3098 3100 3101 3103 3105 3105 3106 3106 3106 3107 3109 3111 3111 3111 3112 3112
3005 3009 3013 3018 3022 3026 3031 3035 3039 3043 3047 3051 3055 3058 3062 3065 3068 3070 3073 3074 3075 3078 3078 3080 3083 3086 3088 3090 3092 3093 3094 3097 3098 3098 3098 3099 3098 3098 3100 3101 3103 3103 3104
2997 3001 3005 3009 3014 3018 3022 3026 3030 3034 3039 3042 3047 3050 3053 3056 3059 3061 3064 3065 3068 3070 3070 3071 3073 3075 3078 3082 3082 3084 3085 3085 3089 3090 3090 3090 3090 3091 3092 3092 3093 3094 3095
2989 2993 2997 3000 3005 3009 3013 3017 3022 3025 3030 3033 3037 3040 3044 3046 3050 3051 3054 3056 3058 3059 3062 3062 3061 3064 3066 3070 3071 3074 3075 3076 3078 3081 3082 3082 3082 3083 3083 3084 3085 3085 3087
2982 2988 2991 2994 2998 3002 3006 3009 3013 3016 3020 3024 3028 3031 3034 3037 3039 3042 3043 3045 3048 3049 3051 3052 3051 3052 3054 3058 3060 3062 3065 3066 3070 3070 3071 3073 3074 3075 3076 3077 3076 3076 3078
2975 2980 2983 2988 2991 2995 2999 3002 3006 3009 3011 3015 3019 3022 3024 3027 3029 3031 3032 3034 3036 3038 3039 3040 3039 3041 3042 3044 3049 3053 3054 3057 3058 3058 3060 3061 3064 3065 3067 3067 3068 3068 3069
2969 2973 2976 2979 2983 2987 2991 2994 2997 3001 3003 3005 3009 3011 3014 3017 3019 3020 3020 3022 3024 3026 3026 3028 3027 3029 3031 3035 3038 3041 3043 3043 3046 3051 3050 3051 3052 3054 3056 3058 3060 3059 3059
2965 2966 2970 2973 2976 2980 2984 2987 2990 2992 2995 2997 3000 3003 3005 3007 3009 3010 3011 3012 3012 3013 3014 3016 3015 3015 3020 3024 3030 3029 3030 3032 3034 3037 3038 3040 3041 3043 3046 3049 3049 3050 3049
2959 2961 2964 2967 2971 2974 2977 2979 2982 2984 2987 2989 2992 2995 2996 2997 2998 2999 2998 2998 2998 2998 3000 3004 3003 3006 3009 3014 3014 3019 3019 3020 3021 3026 3027 3028 3032 3034 3036 3039 3039 3039 3038
2951 2954 2956 2958 2962 2966 2969 2971 2973 2975 2977 2981 2984 2985 2986 2987 2989 2987 2985 2985 2985 2985 2989 2991 2993 2995 2996 2999 3004 3005 3007 3010 3011 3013 3016 3019 3022 3024 3026 3028 3028 3028 3029
2945 2948 2949 2952 2955 2958 2961 2963 2964 2967 2970 2973 2975 2976 2977 2978 2978 2978 2976 2976 2975 2977 2978 2980 2981 2982 2984 2987 2990 2994 2995 2998 3000 3002 3007 3010 3013 3014 3015 3018 3019 3019 3019